Location: Ajisawe
(8.4333°N, 4.3833°E)
Time: 00:15:09
(UTC+00:00)

Courier 1B Rocket - Pass Details

Date: 25 April 2021
Orbit: 920 x 1202 km, 28.3° (Epoch: 13 May)

Event Time Altitude Azimuth Distance (km) Brightness Sun altitude
Rises 17:33:03 0° 294° (WNW) 3,553 10.2 3.7°
Reaches altitude 10° 17:36:58 10° 318° (NW) 2,634 8.3 2.8°
Maximum altitude 17:40:20 15° 350° (N) 2,345 7.4 2.0°
Drops below altitude 10° 17:43:47 10° 23° (NNE) 2,706 7.3 1.1°
Sets 17:47:55 0° 46° (NE) 3,713 7.7 0.1°
